Location: Newark
(13.8117°N, 3.6025°W)
Time: 01:26:51
(UTC+00:00)

Explorer 11/Cluster Stage 4 - Pass Details

Date: 27 August 2019
Orbit: 467 x 1260 km, 28.8° (Epoch: 20 September)

Event Time Altitude Azimuth Distance (km) Brightness Sun altitude
Rises 08:45:38 0° 272° (W) 3,635 9.5 38.5°
Reaches altitude 10° 08:48:22 10° 281° (W) 2,806 9.0 39.2°
Maximum altitude 08:54:45 36° 346° (NNW) 1,734 8.6 40.7°
Drops below altitude 10° 09:02:00 10° 50° (NE) 3,191 10.4 42.5°
Sets 09:05:19 0° 58° (ENE) 4,191 10.9 43.3°
